Weather History for KDVL - February, 2014

Change the Weather History Date:

Monday, February 17, 2014

  Actual Average Record
Temperature  
Mean Temperature 26 °F -  
Max Temperature 35 °F 22 °F 48 °F (1981)
Min Temperature 17 °F 7 °F -27 °F (1966)
Degree Days  
Heating Degree Days 39    
Moisture  
Dew Point 18 °F    
Average Humidity 68    
Maximum Humidity 74    
Minimum Humidity 56    
Precipitation  
Precipitation 0.00 in - - ()
Sea Level Pressure  
Sea Level Pressure 29.54 in    
Wind  
Wind Speed 13 mph (WSW)    
Max Wind Speed 21 mph    
Max Gust Speed 22 mph    
Visibility 10 miles    
Events      
Averages and records for this station are not official NWS values.
T = Trace of Precipitation, MM = Missing Value Source: NWS Daily Summary

Daily Weather History Graph

Daily Weather History Graph

Search for Another Location

Airport or City:

Trip Planner

Search our weather history database for the weather conditions in past years. The results will help you decide how hot, cold, wet, or windy it might be!

Date:

Astronomy

Feb. 17, 2014 Rise Set
Actual Time 7:38 AM CST 6:01 PM CST
Civil Twilight 7:06 AM CST 6:33 PM CST
Nautical Twilight 6:30 AM CST 7:09 PM CST
Astronomical Twilight 5:54 AM CST 7:45 PM CST
Moon 9:14 PM CST (2/17) 8:25 AM CST (2/17)
Length of Visible Light 11h 26m
Length of Day
10h 22m
Waning Gibbous, 93% of the Moon is Illuminated
Feb 17
Waning Gibbous
Feb 22
Last Quarter
Mar 1
New
Mar 8
First Quarter
Mar 16
Full

Hourly Weather History & Observations

Time (CST) Temp. Windchill Dew Point Humidity Pressure Visibility Wind Dir Wind Speed Gust Speed Precip Events Conditions
12:15 AM 17.6 °F 3.7 °F 8.6 °F 68% 29.64 in 3.0 mi South 13.8 mph - N/A   Overcast
12:35 AM 17.6 °F 4.3 °F 8.6 °F 68% 29.63 in 5.0 mi South 12.7 mph - N/A   Overcast
12:55 AM 17.6 °F 3.2 °F 8.6 °F 68% 29.61 in 10.0 mi SSE 15.0 mph - N/A   Overcast
1:15 AM 17.6 °F 3.2 °F 8.6 °F 68% 29.61 in 10.0 mi South 15.0 mph - N/A   Overcast
1:35 AM 17.6 °F 4.3 °F 10.4 °F 73% 29.62 in 10.0 mi South 12.7 mph - N/A   Overcast
1:55 AM 17.6 °F 3.7 °F 10.4 °F 73% 29.62 in 9.0 mi South 13.8 mph - N/A   Overcast
2:15 AM 17.6 °F 4.3 °F 10.4 °F 73% 29.61 in 7.0 mi South 12.7 mph - N/A   Overcast
2:35 AM 17.6 °F 5.7 °F 10.4 °F 73% 29.60 in 10.0 mi South 10.4 mph - N/A   Overcast
2:55 AM 19.4 °F 7.9 °F 10.4 °F 68% 29.60 in 10.0 mi South 10.4 mph - N/A   Overcast
3:15 AM 19.4 °F 8.6 °F 12.2 °F 74% 29.58 in 10.0 mi South 9.2 mph - N/A   Overcast
3:35 AM 19.4 °F 8.6 °F 12.2 °F 74% 29.57 in 10.0 mi South 9.2 mph - N/A   Overcast
3:55 AM 19.4 °F 9.5 °F 12.2 °F 74% 29.56 in 10.0 mi South 8.1 mph - N/A   Overcast
4:15 AM 19.4 °F 9.5 °F 12.2 °F 74% 29.54 in 10.0 mi South 8.1 mph - N/A   Overcast
4:35 AM 19.4 °F 11.5 °F 12.2 °F 74% 29.55 in 10.0 mi SSW 5.8 mph - N/A   Overcast
4:55 AM 21.2 °F 10.9 °F 14.0 °F 74% 29.55 in 10.0 mi SW 9.2 mph - N/A   Overcast
5:15 AM 21.2 °F 11.7 °F 14.0 °F 74% 29.54 in 10.0 mi SW 8.1 mph - N/A   Overcast
5:35 AM 23.0 °F 13.1 °F 15.8 °F 74% 29.54 in 10.0 mi WSW 9.2 mph - N/A   Overcast
5:55 AM 23.0 °F 11.1 °F 15.8 °F 74% 29.55 in 10.0 mi West 12.7 mph - N/A   Overcast
6:15 AM 24.8 °F 11.9 °F 17.6 °F 74% 29.54 in 10.0 mi West 16.1 mph - N/A   Overcast
6:35 AM 26.6 °F 13.4 °F 17.6 °F 69% 29.55 in 10.0 mi WNW 18.4 mph 21.9 mph N/A   Overcast
6:55 AM 28.4 °F 15.1 °F 19.4 °F 69% 29.54 in 10.0 mi WNW 20.7 mph - N/A   Overcast
7:15 AM 26.6 °F 12.7 °F 19.4 °F 74% 29.56 in 10.0 mi WNW 20.7 mph - N/A   Partly Cloudy
7:35 AM 26.6 °F 12.7 °F 17.6 °F 69% 29.56 in 10.0 mi WNW 20.7 mph - N/A   Clear
7:55 AM 24.8 °F 11.5 °F 17.6 °F 74% 29.57 in 10.0 mi NW 17.3 mph - N/A   Clear
8:15 AM 24.8 °F 11.5 °F 15.8 °F 69% 29.58 in 10.0 mi WNW 17.3 mph - N/A   Clear
8:35 AM 24.8 °F 11.1 °F 15.8 °F 69% 29.59 in 10.0 mi WNW 18.4 mph - N/A   Clear
8:55 AM 24.8 °F 10.7 °F 15.8 °F 69% 29.60 in 10.0 mi WNW 19.6 mph - N/A   Clear
9:15 AM 24.8 °F 11.1 °F 15.8 °F 69% 29.60 in 10.0 mi WNW 18.4 mph - N/A   Clear
9:35 AM 23.0 °F 9.2 °F 15.8 °F 74% 29.61 in 10.0 mi WNW 17.3 mph - N/A   Clear
9:55 AM 24.8 °F 11.9 °F 15.8 °F 69% 29.61 in 10.0 mi WNW 16.1 mph - N/A   Clear
10:15 AM 24.8 °F 11.9 °F 17.6 °F 74% 29.62 in 10.0 mi WNW 16.1 mph - N/A   Clear
10:35 AM 24.8 °F 12.9 °F 17.6 °F 74% 29.63 in 10.0 mi WNW 13.8 mph - N/A   Clear
10:55 AM 26.6 °F 14.7 °F 17.6 °F 69% 29.62 in 10.0 mi WNW 15.0 mph - N/A   Clear
11:15 AM 26.6 °F 14.3 °F 17.6 °F 69% 29.63 in 10.0 mi West 16.1 mph - N/A   Clear
11:35 AM 26.6 °F 13.8 °F 19.4 °F 74% 29.64 in 10.0 mi West 17.3 mph - N/A   Clear
11:55 AM 26.6 °F 15.2 °F 19.4 °F 74% 29.63 in 10.0 mi West 13.8 mph - N/A   Clear
12:15 PM 28.4 °F 18.0 °F 19.4 °F 69% 29.62 in 10.0 mi WSW 12.7 mph - N/A   Clear
12:35 PM 28.4 °F 19.1 °F 19.4 °F 69% 29.61 in 10.0 mi WSW 10.4 mph - N/A   Clear
12:55 PM 30.2 °F 19.8 °F 19.4 °F 64% 29.60 in 10.0 mi WSW 13.8 mph - N/A   Clear
1:15 PM 30.2 °F 20.8 °F 21.2 °F 69% 29.60 in 10.0 mi WSW 11.5 mph - N/A   Clear
1:35 PM 30.2 °F 21.3 °F 21.2 °F 69% 29.59 in 10.0 mi WSW 10.4 mph - N/A   Clear
1:55 PM 32.0 °F 22.1 °F 21.2 °F 64% 29.58 in 10.0 mi WSW 13.8 mph - N/A   Clear
2:15 PM 32.0 °F 22.5 °F 21.2 °F 64% 29.58 in 10.0 mi WSW 12.7 mph - N/A   Clear
2:35 PM 32.0 °F 22.5 °F 21.2 °F 64% 29.56 in 10.0 mi WSW 12.7 mph - N/A   Clear
2:55 PM 33.8 °F 24.8 °F 21.2 °F 60% 29.55 in 10.0 mi WSW 12.7 mph - N/A   Clear
3:15 PM 33.8 °F 24.3 °F 21.2 °F 60% 29.55 in 10.0 mi WSW 13.8 mph - N/A   Clear
3:35 PM 33.8 °F 24.8 °F 21.2 °F 60% 29.55 in 10.0 mi WSW 12.7 mph - N/A   Clear
3:55 PM 33.8 °F 24.8 °F 21.2 °F 60% 29.54 in 10.0 mi WSW 12.7 mph - N/A   Clear
4:15 PM 35.6 °F 27.5 °F 21.2 °F 56% 29.53 in 10.0 mi SSW 11.5 mph - N/A   Clear
4:35 PM 33.8 °F 26.4 °F 21.2 °F 60% 29.52 in 10.0 mi SSW 9.2 mph - N/A   Clear
4:55 PM 33.8 °F 24.8 °F 23.0 °F 65% 29.51 in 10.0 mi SSW 12.7 mph - N/A   Clear
5:15 PM 32.0 °F 22.5 °F 21.2 °F 64% 29.50 in 10.0 mi SW 12.7 mph - N/A   Clear
5:35 PM 33.8 °F 24.3 °F 21.2 °F 60% 29.50 in 10.0 mi SSW 13.8 mph - N/A   Clear
5:55 PM 33.8 °F 24.3 °F 23.0 °F 65% 29.49 in 10.0 mi SW 13.8 mph - N/A   Clear
6:15 PM 33.8 °F 23.5 °F 23.0 °F 65% 29.48 in 10.0 mi SW 16.1 mph - N/A   Clear
6:35 PM 32.0 °F 22.1 °F 21.2 °F 64% 29.48 in 10.0 mi SW 13.8 mph - N/A   Clear
6:55 PM 32.0 °F 22.1 °F 21.2 °F 64% 29.48 in 10.0 mi SW 13.8 mph - N/A   Clear
7:15 PM 30.2 °F 19.3 °F 21.2 °F 69% 29.47 in 10.0 mi SW 15.0 mph - N/A   Clear
7:35 PM 30.2 °F 19.8 °F 19.4 °F 64% 29.46 in 10.0 mi SSW 13.8 mph - N/A   Clear
7:55 PM 30.2 °F 19.8 °F 21.2 °F 69% 29.45 in 10.0 mi SW 13.8 mph - N/A   Clear
8:15 PM 30.2 °F 19.8 °F 19.4 °F 64% 29.45 in 10.0 mi SW 13.8 mph - N/A   Clear
8:35 PM 30.2 °F 20.2 °F 21.2 °F 69% 29.44 in 10.0 mi SW 12.7 mph - N/A   Clear
8:55 PM 30.2 °F 19.8 °F 21.2 °F 69% 29.44 in 10.0 mi SW 13.8 mph - N/A   Partly Cloudy
9:15 PM 30.2 °F 20.2 °F 19.4 °F 64% 29.44 in 10.0 mi SW 12.7 mph - N/A   Clear
9:35 PM 30.2 °F 19.8 °F 19.4 °F 64% 29.43 in 10.0 mi SW 13.8 mph - N/A   Clear
9:55 PM 30.2 °F 19.8 °F 21.2 °F 69% 29.43 in 10.0 mi SW 13.8 mph - N/A   Clear
10:15 PM 30.2 °F 19.8 °F 21.2 °F 69% 29.43 in 10.0 mi SW 13.8 mph - N/A   Clear
10:35 PM 30.2 °F 19.8 °F 21.2 °F 69% 29.42 in 10.0 mi SW 13.8 mph - N/A   Clear
10:55 PM 32.0 °F 21.6 °F 21.2 °F 64% 29.42 in 10.0 mi SW 15.0 mph - N/A   Clear
11:15 PM 33.8 °F 23.9 °F 23.0 °F 65% 29.41 in 10.0 mi WSW 15.0 mph - N/A   Clear
11:35 PM 33.8 °F 23.5 °F 23.0 °F 65% 29.41 in 10.0 mi WSW 16.1 mph - N/A   Clear
11:55 PM 33.8 °F 24.3 °F 23.0 °F 65% 29.41 in 10.0 mi WSW 13.8 mph - N/A   Clear